Location: Firdgum
(53.2488°N, 5.5615°E)
Time: 22:35:22
(UTC+00:00)

ATLAS CENTAUR R/B - Pass Details

Date: 08 December 2019
Orbit: 454 x 694 km, 64.6° (Epoch: 20 January)

Event Time Altitude Azimuth Distance (km) Brightness Sun altitude
Exits shadow 05:57:25 15° 329° (NNW) 1,626 3.3 -14.0°
Maximum altitude 06:00:36 37° 31° (NNE) 905 2.5 -13.5°
Drops below altitude 10° 06:04:26 10° 100° (E) 1,820 5.4 -13.0°
Sets 06:06:40 0° 109° (ESE) 2,667 6.9 -12.7°
